TimeMST,TemperatureF,Dew PointF,Humidity,Sea Level PressureIn,VisibilityMPH,Wind Direction,Wind SpeedMPH,Gust SpeedMPH,PrecipitationIn,Events,Conditions,WindDirDegrees,DateUTC
12:53 AM,16.0,10.0,77,30.37,10.0,NW,3.5,-,N/A,,Clear,320,2013-03-01 07:53:00
1:53 AM,14.0,8.1,77,30.37,10.0,North,6.9,-,N/A,,Clear,350,2013-03-01 08:53:00
2:53 AM,14.0,8.1,77,30.38,10.0,North,5.8,-,N/A,,Clear,350,2013-03-01 09:53:00
4:53 AM,15.1,9.0,77,30.39,10.0,North,5.8,-,N/A,,Partly Cloudy,350,2013-03-01 11:53:00
5:53 AM,16.0,10.0,77,30.40,10.0,NNW,3.5,-,N/A,,Partly Cloudy,330,2013-03-01 12:53:00
6:53 AM,16.0,10.0,77,30.44,10.0,NNW,3.5,-,N/A,,Overcast,340,2013-03-01 13:53:00
8:53 AM,30.0,17.1,59,30.41,10.0,WNW,8.1,-,N/A,,Partly Cloudy,300,2013-03-01 15:53:00
9:53 AM,32.0,18.0,56,30.41,10.0,WNW,10.4,-,N/A,,Overcast,300,2013-03-01 16:53:00
11:53 AM,41.0,23.0,49,30.35,10.0,WNW,13.8,-,N/A,,Overcast,300,2013-03-01 18:53:00
12:53 PM,44.1,23.0,43,30.32,10.0,NW,18.4,24.2,N/A,,Overcast,310,2013-03-01 19:53:00
1:53 PM,44.1,24.1,45,30.32,10.0,WNW,20.7,27.6,N/A,,Overcast,300,2013-03-01 20:53:00
2:53 PM,43.0,25.0,49,30.33,10.0,WNW,15.0,23.0,N/A,,Overcast,300,2013-03-01 21:53:00
3:53 PM,45.0,26.1,48,30.33,10.0,WNW,12.7,-,N/A,,Overcast,290,2013-03-01 22:53:00
4:53 PM,43.0,26.1,51,30.34,10.0,WNW,13.8,-,N/A,,Overcast,300,2013-03-01 23:53:00
5:53 PM,39.9,27.0,60,30.36,10.0,NW,10.4,-,N/A,,Mostly Cloudy,320,2013-03-02 00:53:00
7:53 PM,35.1,26.1,70,30.37,10.0,NNW,8.1,-,N/A,,Clear,330,2013-03-02 02:53:00
8:53 PM,32.0,25.0,75,30.34,10.0,West,9.2,-,N/A,,Clear,270,2013-03-02 03:53:00
9:53 PM,28.9,24.1,82,30.34,10.0,NNW,3.5,-,N/A,,Clear,340,2013-03-02 04:53:00
10:53 PM,30.0,24.1,79,30.32,10.0,WNW,3.5,-,N/A,,Clear,300,2013-03-02 05:53:00
11:53 PM,28.9,24.1,82,30.31,10.0,WNW,5.8,-,N/A,,Clear,300,2013-03-02 06:53:00